| time (UTC) | temp C | wind direction | speed KPH | gust KPH | rain 1hr cm | rain 24hr cm | rain mn cm | humidity % | barometer mb |
| 20260504205158 | 8 | 202 | 0.0 | 0.0 | 0.00 | 0.41 | 0.00 | 93 | 1019.0 |
| 20260504203657 | 7 | 225 | 0.0 | 0.0 | 0.00 | 0.41 | 0.00 | 94 | 1019.0 |
| 20260504195158 | 10 | 270 | 0.0 | 8.0 | 0.00 | 0.41 | 0.00 | 84 | 1017.0 |
| 20260504193658 | 10 | 292 | 0.0 | 8.0 | 0.00 | 0.41 | 0.00 | 82 | 1017.0 |
| 20260504185158 | 12 | 247 | 3.2 | 8.0 | 0.00 | 0.41 | 0.00 | 74 | 1016.0 |
| 20260504183658 | 12 | 270 | 3.2 | 9.7 | 0.00 | 0.41 | 0.00 | 75 | 1016.0 |
| 20260504175157 | 12 | 292 | 3.2 | 12.9 | 0.00 | 0.41 | 0.00 | 72 | 1014.0 |
| 20260504173659 | 12 | 112 | 3.2 | 12.9 | 0.00 | 0.41 | 0.00 | 72 | 1014.0 |
| 20260504045159 | 27 | 247 | 27.4 | 35.4 | 0.00 | 0.41 | 0.41 | 74 | 995.0 |
| 20260504043659 | 27 | 270 | 19.3 | 35.4 | 0.00 | 0.41 | 0.41 | 75 | 996.0 |
| 20260504035158 | 27 | 270 | 9.7 | 35.4 | 0.00 | 0.41 | 0.41 | 82 | 996.0 |
| 20260504033657 | 26 | 270 | 9.7 | 35.4 | 0.00 | 0.41 | 0.41 | 84 | 996.0 |
| 20260504025157 | 26 | 225 | 16.1 | 29.0 | 0.00 | 0.41 | 0.41 | 89 | 997.0 |
| 20260504023659 | 26 | 292 | 20.9 | 29.0 | 0.00 | 0.41 | 0.41 | 91 | 997.0 |
| 20260504015158 | 25 | 270 | 16.1 | 29.0 | 0.00 | 0.41 | 0.41 | 98 | 997.0 |
| 20260504013657 | 25 | 270 | 16.1 | 29.0 | 0.00 | 0.41 | 0.41 | 99 | 997.0 |
| 20260504005157 | 23 | 247 | 16.1 | 35.4 | 0.00 | 0.41 | 0.41 | 99 | 997.0 |
| 20260504003659 | 26 | 292 | 16.1 | 35.4 | 0.00 | 0.41 | 0.41 | 99 | 997.0 |
| 20260503235157 | 23 | 270 | 16.1 | 40.2 | 0.00 | 0.41 | 0.41 | 99 | 997.0 |
| 20260503233657 | 23 | 270 | 9.7 | 41.8 | 0.03 | 0.41 | 0.41 | 99 | 997.0 |
| 20260503225157 | 23 | 270 | 22.5 | 48.3 | 0.30 | 0.41 | 0.41 | 99 | 997.0 |
| 20260503223659 | 23 | 292 | 29.0 | 48.3 | 0.30 | 0.38 | 0.38 | 99 | 997.0 |
| 20260503215157 | 22 | 247 | 27.4 | 38.6 | 0.10 | 0.10 | 0.10 | 99 | 997.0 |
| 20260503213657 | 22 | 225 | 35.4 | 33.8 | 0.08 | 0.08 | 0.08 | 99 | 997.0 |